FW5404 Weather Reports


time (UTC)temp
C
wind
direction
speed
KPH
gust
KPH
rain 1hr
cm
rain 24hr
cm
rain mn
cm
humidity
%
barometer
mb
20260506143005 16 85 8.0 11.3 0.00 0.00 0.00 57 1021.3
20260506142505 16 88 9.7 11.3 0.00 0.00 0.00 55 1021.3
20260506142006 16 91 8.0 11.3 0.00 0.00 0.00 55 1021.3
20260506141505 16 87 9.7 12.9 0.00 0.00 0.00 56 1021.3
20260506141005 16 79 11.3 12.9 0.00 0.00 0.00 56 1021.3
20260506140505 16 77 11.3 14.5 0.00 0.00 0.00 55 1021.3
20260506140007 16 82 11.3 14.5 0.00 0.00 0.00 58 1021.3
20260506135505 16 91 9.7 11.3 0.00 0.00 0.00 58 1021.3
20260506135005 15 92 8.0 9.7 0.00 0.00 0.00 59 1021.3
20260506134505 16 87 9.7 12.9 0.00 0.00 0.00 59 1021.3
20260506134005 15 80 9.7 12.9 0.00 0.00 0.00 58 1021.3
20260506133505 16 80 6.4 12.9 0.00 0.00 0.00 59 1021.3
20260506133005 15 83 6.4 8.0 0.00 0.00 0.00 60 1021.3
20260506132505 15 90 6.4 12.9 0.00 0.00 0.00 60 1021.3
20260506132005 15 97 6.4 12.9 0.00 0.00 0.00 59 1021.3
20260506131505 15 88 6.4 9.7 0.00 0.00 0.00 60 1021.3
20260506131005 15 94 6.4 9.7 0.00 0.00 0.00 62 1021.3
20260506130505 15 92 6.4 9.7 0.00 0.00 0.00 63 1021.3
20260506130007 15 88 8.0 9.7 0.00 0.00 0.00 63 1021.3
20260506125505 15 74 8.0 9.7 0.00 0.00 0.00 64 1021.3
20260506125006 15 55 8.0 12.9 0.00 0.00 0.00 65 1021.3
20260506124505 15 72 8.0 12.9 0.00 0.00 0.00 65 1021.3
20260506124006 15 85 6.4 12.9 0.00 0.00 0.00 65 1021.3
20260506123504 15 86 6.4 12.9 0.00 0.00 0.00 66 1021.3
20260506123005 14 82 8.0 12.9 0.00 0.00 0.00 67 1021.3
20260506122505 14 81 8.0 12.9 0.00 0.00 0.00 67 1021.3
20260506122005 14 79 6.4 9.7 0.00 0.00 0.00 66 1021.3
20260506121505 14 75 6.4 9.7 0.00 0.00 0.00 67 1022.3
20260506121005 14 67 6.4 8.0 0.00 0.00 0.00 67 1022.3
20260506120505 14 76 6.4 11.3 0.00 0.00 0.00 68 1022.3
20260506120007 14 89 6.4 11.3 0.00 0.00 0.00 68 1022.3
20260506115505 14 85 6.4 8.0 0.00 0.00 0.00 67 1022.3
20260506115005 14 78 6.4 9.7 0.00 0.00 0.00 67 1022.3
20260506114505 14 77 6.4 9.7 0.00 0.00 0.00 69 1022.3
20260506114005 14 93 6.4 11.3 0.00 0.00 0.00 71 1022.3
20260506113505 13 91 8.0 11.3 0.00 0.00 0.00 70 1022.3
20260506113005 13 84 8.0 11.3 0.00 0.00 0.00 70 1021.3
20260506112505 13 84 6.4 11.3 0.00 0.00 0.00 71 1021.3
20260506112005 13 92 4.8 6.4 0.00 0.00 0.00 71 1021.3
20260506111505 13 86 4.8 8.0 0.00 0.00 0.00 72 1021.3
20260506111005 13 85 3.2 8.0 0.00 0.00 0.00 73 1021.3
20260506110505 13 127 1.6 3.2 0.00 0.00 0.00 74 1021.3
20260506110007 13 254 3.2 6.4 0.00 0.00 0.00 76 1022.3
20260506105505 13 248 3.2 6.4 0.00 0.00 0.00 76 1022.3
20260506105004 13 262 3.2 4.8 0.00 0.00 0.00 76 1022.3
20260506104505 13 275 1.6 4.8 0.00 0.00 0.00 75 1021.3
20260506104005 13 0 0.0 0.0 0.00 0.00 0.00 75 1021.3
20260506103504 13 292 9.7 9.7 0.00 0.00 0.00 74 1021.3
20260506103005 13 292 9.7 9.7 0.00 0.00 0.00 73 1021.3
20260506102505 13 292 9.7 9.7 0.00 0.00 0.00 73 1021.3
20260506102005 13 292 9.7 9.7 0.00 0.00 0.00 74 1021.3
20260506101505 13 292 9.7 9.7 0.00 0.00 0.00 74 1021.3
20260506101006 13 292 9.7 9.7 0.00 0.00 0.00 74 1021.3
20260506100504 13 292 9.7 9.7 0.00 0.00 0.00 74 1021.3
20260506100008 14 292 8.0 9.7 0.00 0.00 0.00 73 1021.3
20260506095505 14 304 8.0 9.7 0.00 0.00 0.00 73 1021.3
20260506095005 14 309 8.0 9.7 0.00 0.00 0.00 71 1021.3
20260506094505 14 292 8.0 8.0 0.00 0.00 0.00 71 1021.3
20260506094005 15 252 3.2 6.4 0.00 0.00 0.00 69 1021.3
20260506093505 15 252 3.2 6.4 0.00 0.00 0.00 69 1021.3
20260506093004 15 252 3.2 6.4 0.00 0.00 0.00 68 1021.3
20260506092505 15 136 3.2 6.4 0.00 0.00 0.00 65 1021.3
20260506092005 15 93 4.8 6.4 0.00 0.00 0.00 65 1021.3
20260506091505 15 107 4.8 8.0 0.00 0.00 0.00 66 1021.3
20260506091004 15 110 4.8 8.0 0.00 0.00 0.00 66 1021.3
20260506090505 15 99 4.8 8.0 0.00 0.00 0.00 66 1021.3
20260506090007 15 97 4.8 8.0 0.00 0.00 0.00 66 1021.3
20260506085504 15 87 4.8 9.7 0.00 0.00 0.00 65 1021.3
20260506085005 15 92 4.8 9.7 0.00 0.00 0.00 64 1021.3
20260506084505 15 88 6.4 9.7 0.00 0.00 0.00 64 1021.3
20260506084005 15 59 4.8 9.7 0.00 0.00 0.00 65 1021.3
20260506083505 15 44 3.2 4.8 0.00 0.00 0.00 66 1021.3
20260506083004 15 70 1.6 4.8 0.00 0.00 0.00 69 1021.3
20260506082505 15 94 3.2 4.8 0.00 0.00 0.00 68 1021.3
20260506082005 15 89 3.2 4.8 0.00 0.00 0.00 67 1021.3
20260506081504 15 73 3.2 6.4 0.00 0.00 0.00 71 1021.3
20260506081005 14 77 3.2 6.4 0.00 0.00 0.00 74 1021.3
20260506080505 13 86 3.2 6.4 0.00 0.00 0.00 74 1021.3
20260506073505 12 42 4.8 6.4 0.00 0.00 0.00 82 1021.3
20260506073005 12 63 1.6 4.8 0.00 0.00 0.00 84 1021.3
20260506072505 12 68 1.6 4.8 0.00 0.00 0.00 84 1021.3
20260506072005 12 68 1.6 4.8 0.00 0.00 0.00 84 1021.3
20260506071504 12 68 0.0 3.2 0.00 0.00 0.00 84 1021.3
20260506071004 12 68 0.0 3.2 0.00 0.00 0.00 84 1021.3
20260506070504 12 68 0.0 1.6 0.00 0.00 0.00 84 1021.3
20260506062504 11 49 3.2 4.8 0.00 0.00 0.00 88 1021.3
20260506062004 11 49 1.6 4.8 0.00 0.00 0.00 88 1021.3
20260506061504 11 337 0.0 3.2 0.00 0.00 0.00 88 1021.3
20260506061005 11 20 1.6 4.8 0.00 0.00 0.00 88 1021.3
20260506060505 11 12 1.6 4.8 0.00 0.00 0.00 88 1021.3
20260506051005 11 297 1.6 3.2 0.00 0.00 0.00 86 1021.3
20260506050504 11 313 0.0 1.6 0.00 0.00 0.00 86 1021.3
20260506045004 11 6 3.2 4.8 0.00 0.00 0.00 85 1021.3
20260506044505 11 344 3.2 4.8 0.00 0.00 0.00 85 1021.3
20260506044004 11 336 3.2 4.8 0.00 0.00 0.00 85 1021.3
20260506043504 11 333 3.2 3.2 0.00 0.00 0.00 85 1021.3
20260506043004 11 335 1.6 3.2 0.00 0.00 0.00 85 1021.3
20260506042504 11 4 1.6 3.2 0.00 0.00 0.00 85 1021.3
20260506042004 11 9 1.6 3.2 0.00 0.00 0.00 85 1021.3
20260506041504 11 350 1.6 4.8 0.00 0.00 0.00 85 1021.3
20260506041005 11 336 1.6 4.8 0.00 0.00 0.00 84 1021.3
20260506040504 11 330 1.6 3.2 0.00 0.00 0.00 84 1021.3
20260506040006 11 3 3.2 4.8 0.00 0.00 0.00 84 1021.3
20260506035505 11 19 3.2 4.8 0.00 0.00 0.00 84 1021.3
20260506035004 11 16 3.2 6.4 0.00 0.00 0.00 84 1021.3
20260506034504 11 28 4.8 6.4 0.00 0.00 0.00 85 1021.3
20260506034004 11 45 6.4 11.3 0.00 0.00 0.00 85 1021.3
20260506033504 11 57 6.4 11.3 0.00 0.00 0.00 85 1021.3
20260506033005 11 60 6.4 11.3 0.00 0.00 0.00 85 1021.3
20260506032504 11 45 4.8 9.7 0.00 0.00 0.00 85 1021.3
20260506032004 11 31 3.2 4.8 0.00 0.00 0.00 84 1021.3
20260506031504 11 22 1.6 1.6 0.00 0.00 0.00 84 1021.3
20260506031004 11 22 1.6 1.6 0.00 0.00 0.00 83 1021.3
20260506030504 11 22 1.6 1.6 0.00 0.00 0.00 83 1021.3
20260506030006 11 22 1.6 1.6 0.00 0.00 0.00 83 1021.3
20260506025504 11 22 1.6 1.6 0.00 0.00 0.00 83 1021.3
20260506025004 11 10 1.6 1.6 0.00 0.00 0.00 83 1021.3
20260506024504 11 351 3.2 8.0 0.00 0.00 0.00 83 1021.3
20260506024004 11 339 3.2 8.0 0.00 0.00 0.00 83 1021.3
20260506023504 11 336 3.2 6.4 0.00 0.00 0.00 83 1021.3
20260506023004 11 330 1.6 3.2 0.00 0.00 0.00 83 1021.3
20260506022505 11 327 3.2 4.8 0.00 0.00 0.00 83 1021.3
20260506022004 11 330 1.6 4.8 0.00 0.00 0.00 83 1021.3
20260506021504 11 6 1.6 6.4 0.00 0.00 0.00 83 1021.3
20260506021005 11 350 3.2 6.4 0.00 0.00 0.00 83 1021.3
20260506020504 11 343 3.2 6.4 0.00 0.00 0.00 83 1021.3
20260506020006 11 5 3.2 6.4 0.00 0.00 0.00 83 1021.3
20260506015504 11 10 3.2 6.4 0.00 0.00 0.00 83 1021.3
20260506015004 11 3 3.2 6.4 0.00 0.00 0.00 83 1021.3
20260506014504 11 355 3.2 6.4 0.00 0.00 0.00 83 1021.3
20260506014004 11 345 3.2 4.8 0.00 0.00 0.00 82 1021.3
20260506013504 11 359 3.2 4.8 0.00 0.00 0.00 83 1021.3
20260506013004 11 8 3.2 3.2 0.00 0.00 0.00 83 1021.3
20260506012504 11 349 1.6 3.2 0.00 0.00 0.00 82 1021.3
20260506012005 11 342 3.2 3.2 0.00 0.00 0.00 82 1021.3
20260506011504 11 341 3.2 3.2 0.00 0.00 0.00 82 1021.3
20260506011004 11 344 1.6 3.2 0.00 0.00 0.00 82 1021.3
20260506010504 11 22 0.0 1.6 0.00 0.00 0.00 82 1021.3
20260506010006 11 320 0.0 1.6 0.00 0.00 0.00 82 1022.3
20260506005504 11 317 1.6 3.2 0.00 0.00 0.00 82 1022.3
20260506005004 11 337 1.6 3.2 0.00 0.00 0.00 81 1022.3
20260506004505 11 354 1.6 3.2 0.00 0.00 0.00 81 1022.3
20260506004004 11 19 1.6 4.8 0.00 0.00 0.00 81 1022.3
20260506003504 11 32 1.6 4.8 0.00 0.00 0.00 81 1022.3
20260506003004 11 35 1.6 4.8 0.00 0.00 0.00 81 1022.3
20260506002504 11 21 1.6 4.8 0.00 0.00 0.00 82 1022.3
20260506002004 11 337 0.0 3.2 0.00 0.00 0.00 82 1022.3
20260506001503 11 292 0.0 1.6 0.00 0.00 0.00 82 1022.3
20260506001004 11 274 0.0 3.2 0.00 0.00 0.00 82 1022.3
20260506000504 11 289 1.6 3.2 0.00 0.00 0.00 82 1022.3
20260506000006 11 340 1.6 4.8 0.00 0.00 0.00 81 1022.3
20260505235503 11 316 1.6 4.8 0.00 0.00 0.00 82 1022.3
20260505235004 11 300 0.0 3.2 0.00 0.00 0.00 82 1022.3
20260505234504 11 305 0.0 3.2 0.00 0.00 0.00 82 1022.3
20260505234004 11 314 0.0 3.2 0.00 0.00 0.00 82 1022.3
20260505233504 11 303 0.0 3.2 0.00 0.00 0.00 82 1022.3
20260505233004 11 292 1.6 3.2 0.00 0.00 0.00 82 1022.3
20260505232503 11 286 3.2 4.8 0.00 0.00 0.00 81 1022.3
20260505232004 11 285 3.2 4.8 0.00 0.00 0.00 81 1022.3
20260505231504 11 308 3.2 6.4 0.00 0.00 0.00 81 1022.3
20260505231004 11 314 3.2 6.4 0.00 0.00 0.00 80 1022.3
20260505230504 11 308 1.6 4.8 0.00 0.00 0.00 80 1022.3
20260505230009 11 309 1.6 4.8 0.00 0.00 0.00 79 1022.3
20260505225504 11 323 1.6 4.8 0.00 0.00 0.00 79 1022.3
20260505225003 12 322 3.2 6.4 0.00 0.00 0.00 79 1022.3
20260505224504 12 318 1.6 6.4 0.00 0.00 0.00 79 1022.3
20260505224004 12 328 3.2 6.4 0.00 0.00 0.00 79 1022.3
20260505223504 11 321 4.8 6.4 0.00 0.00 0.00 79 1022.3
20260505223005 11 331 3.2 4.8 0.00 0.00 0.00 79 1022.3
20260505222504 11 350 4.8 9.7 0.00 0.00 0.00 79 1022.3
20260505222004 11 333 4.8 9.7 0.00 0.00 0.00 79 1022.3
20260505221504 11 323 3.2 9.7 0.00 0.00 0.00 79 1022.3
20260505221004 11 324 3.2 6.4 0.00 0.00 0.00 78 1022.3
20260505220504 11 315 3.2 4.8 0.00 0.00 0.00 78 1022.3
20260505220005 11 310 3.2 4.8 0.00 0.00 0.00 78 1022.3
20260505215504 11 313 1.6 4.8 0.00 0.00 0.00 77 1022.3
20260505215004 11 337 1.6 4.8 0.00 0.00 0.00 77 1022.3
20260505214504 11 317 3.2 6.4 0.00 0.00 0.00 76 1022.3
20260505214004 11 307 3.2 6.4 0.00 0.00 0.00 76 1022.3
20260505213504 11 295 3.2 6.4 0.00 0.00 0.00 76 1022.3
20260505213004 12 288 3.2 4.8 0.00 0.00 0.00 75 1022.3
20260505212504 12 301 3.2 6.4 0.00 0.00 0.00 75 1022.3
20260505212004 12 309 3.2 6.4 0.00 0.00 0.00 75 1022.3
20260505211504 12 301 3.2 6.4 0.00 0.00 0.00 74 1022.3
20260505211004 12 317 3.2 6.4 0.00 0.00 0.00 74 1022.3
20260505210504 12 330 4.8 6.4 0.00 0.00 0.00 74 1022.3
20260505210006 12 337 4.8 6.4 0.00 0.00 0.00 72 1022.3
20260505205504 12 336 4.8 6.4 0.00 0.00 0.00 71 1022.3
20260505205005 12 331 4.8 6.4 0.00 0.00 0.00 71 1022.3
20260505204504 12 350 4.8 9.7 0.00 0.00 0.00 71 1022.3
20260505204003 12 354 4.8 9.7 0.00 0.00 0.00 70 1022.3
20260505203504 12 338 3.2 4.8 0.00 0.00 0.00 70 1022.3
20260505203004 12 334 4.8 9.7 0.00 0.00 0.00 70 1022.3
20260505202504 12 337 6.4 9.7 0.00 0.00 0.00 69 1022.3
20260505202005 12 330 4.8 9.7 0.00 0.00 0.00 69 1022.3
20260505201504 12 327 4.8 4.8 0.00 0.00 0.00 69 1022.3
20260505201004 13 314 11.3 11.3 0.00 0.00 0.00 66 1022.3
20260505200504 13 314 11.3 11.3 0.00 0.00 0.00 66 1022.3
20260505200006 13 314 11.3 11.3 0.00 0.00 0.00 66 1022.3
20260505195504 13 314 11.3 11.3 0.00 0.00 0.00 66 1022.3
20260505195004 13 314 11.3 11.3 0.00 0.00 0.00 66 1022.3
20260505194504 13 314 11.3 11.3 0.00 0.00 0.00 66 1022.3
20260505194004 13 314 11.3 11.3 0.00 0.00 0.00 66 1022.3
20260505193504 13 314 11.3 11.3 0.00 0.00 0.00 66 1022.3
20260505193004 13 314 11.3 11.3 0.00 0.00 0.00 66 1022.3
20260505192504 13 314 11.3 11.3 0.00 0.00 0.00 66 1022.3
20260505192004 13 314 11.3 11.3 0.00 0.00 0.00 66 1022.3
20260505191504 13 314 11.3 11.3 0.00 0.00 0.00 66 1022.3
20260505191005 13 314 11.3 11.3 0.00 0.00 0.00 66 1022.3
20260505190504 13 356 9.7 12.9 0.00 0.00 0.00 65 1022.3
20260505190006 13 359 9.7 12.9 0.00 0.00 0.00 65 1022.3
20260505185504 13 358 11.3 16.1 0.00 0.00 0.00 64 1022.3
20260505185005 13 3 11.3 16.1 0.00 0.00 0.00 63 1022.3
20260505184504 14 6 8.0 16.1 0.00 0.00 0.00 63 1022.3
20260505184006 14 358 8.0 16.1 0.00 0.00 0.00 63 1022.3
20260505183505 14 350 9.7 12.9 0.00 0.00 0.00 63 1022.3
20260505183006 14 6 11.3 14.5 0.00 0.00 0.00 62 1022.3
20260505182505 14 5 11.3 14.5 0.00 0.00 0.00 62 1022.3
20260505182006 14 343 11.3 14.5 0.00 0.00 0.00 61 1022.3
20260505181506 14 326 9.7 12.9 0.00 0.00 0.00 62 1022.3
20260505181007 15 337 9.7 16.1 0.00 0.00 0.00 62 1022.3
20260505180506 15 335 11.3 16.1 0.00 0.00 0.00 61 1022.3
20260505180008 15 345 12.9 17.7 0.00 0.00 0.00 60 1022.3
20260505175506 15 351 12.9 17.7 0.00 0.00 0.00 58 1022.3
20260505175005 15 344 11.3 20.9 0.00 0.00 0.00 58 1022.3
20260505174506 15 331 14.5 20.9 0.00 0.00 0.00 57 1022.3
20260505174006 15 326 14.5 17.7 0.00 0.00 0.00 56 1022.3
20260505173506 15 325 12.9 17.7 0.00 0.00 0.00 56 1022.3
20260505173005 15 335 12.9 17.7 0.00 0.00 0.00 55 1022.3
20260505172505 15 352 12.9 20.9 0.00 0.00 0.00 56 1022.3
20260505172006 16 1 11.3 20.9 0.00 0.00 0.00 56 1022.3
20260505171505 16 344 12.9 20.9 0.00 0.00 0.00 55 1022.3
20260505171006 16 328 11.3 14.5 0.00 0.00 0.00 55 1022.3
20260505170506 16 1 6.4 9.7 0.00 0.00 0.00 56 1022.3
20260505170008 16 1 6.4 9.7 0.00 0.00 0.00 56 1022.3
20260505165506 16 1 6.4 9.7 0.00 0.00 0.00 57 1022.3
20260505165006 16 1 6.4 9.7 0.00 0.00 0.00 57 1022.3
20260505164505 16 1 6.4 9.7 0.00 0.00 0.00 57 1022.3
20260505164005 16 1 6.4 9.7 0.00 0.00 0.00 57 1022.3
20260505163506 16 328 11.3 20.9 0.00 0.00 0.00 60 1022.3
20260505163008 16 321 11.3 20.9 0.00 0.00 0.00 60 1022.3
20260505162505 16 302 11.3 16.1 0.00 0.00 0.00 63 1022.3
20260505162005 16 306 14.5 16.1 0.00 0.00 0.00 63 1022.3
20260505161505 16 307 11.3 14.5 0.00 0.00 0.00 63 1022.3
20260505161005 16 294 12.9 14.5 0.00 0.00 0.00 67 1022.3
20260505160505 16 287 12.9 14.5 0.00 0.00 0.00 67 1022.3